Date,TemperatureHighF,TemperatureAvgF,TemperatureLowF,DewpointHighF,DewpointAvgF,DewpointLowF,HumidityHigh,HumidityAvg,HumidityLow,PressureMaxIn,PressureMinIn,WindSpeedMaxMPH,WindSpeedAvgMPH,GustSpeedMaxMPH,PrecipitationSumIn
2013-2-1,19,11,9,12,5,1,85,76,66,29.92,29.56,18,8,28,0.00
2013-2-2,12,12,12,3,3,3,66,66,66,29.92,29.92,7,7,0,0.00
2013-2-3,12,12,12,3,3,3,66,66,66,29.92,29.92,7,7,0,0.00
2013-2-4,18,4,-8,3,-3,-9,91,71,40,29.94,29.85,10,3,16,0.00
2013-2-5,21,6,-13,9,-5,-17,91,63,37,30.00,29.84,7,1,0,0.00
2013-2-6,27,17,3,25,8,-6,100,68,40,30.39,29.81,16,7,24,0.00
2013-2-7,12,6,0,0,-3,-8,91,66,51,30.56,30.33,13,7,22,0.00
2013-2-8,16,9,5,12,5,-2,92,87,65,30.33,29.98,17,11,24,0.00
2013-2-9,16,9,-9,10,4,-13,92,79,52,30.38,30.05,17,7,22,0.00
2013-2-10,32,10,-13,9,-2,-17,92,61,28,30.44,30.11,8,2,0,0.00
2013-2-11,43,29,14,39,24,7,100,83,67,30.11,29.55,25,8,32,0.00
2013-2-12,36,33,30,34,31,25,100,91,74,29.85,29.57,22,15,29,0.00
2013-2-13,34,30,25,28,27,23,100,86,69,29.83,29.74,13,6,0,0.00
2013-2-14,36,31,27,32,25,21,100,77,55,29.90,29.76,9,4,0,0.00
2013-2-15,37,34,25,37,28,18,100,78,59,29.97,29.74,33,16,41,0.00
2013-2-16,27,16,1,21,7,0,91,68,45,30.06,29.96,9,3,0,0.00
2013-2-17,12,5,-8,1,-2,-11,91,74,56,30.02,29.84,16,7,20,0.00
2013-2-18,19,9,0,3,-1,-6,84,65,44,30.23,30.01,14,8,18,0.00
2013-2-19,37,28,14,37,19,1,100,71,48,30.05,29.57,25,8,35,0.00
2013-2-20,30,25,12,25,19,9,92,78,63,29.89,29.63,25,17,32,0.00
2013-2-21,19,13,7,19,8,0,100,80,71,30.40,29.89,16,10,23,0.00
2013-2-22,36,27,19,25,23,19,100,83,64,30.42,30.13,9,4,0,0.00
2013-2-23,39,34,30,36,32,25,100,92,74,30.13,29.85,9,2,0,0.00
2013-2-24,36,34,32,34,31,27,100,91,69,29.96,29.81,12,7,0,0.00
2013-2-25,36,33,32,34,33,32,100,100,93,30.23,29.96,7,3,0,0.00
2013-2-26,45,35,27,34,29,25,100,79,45,30.28,30.01,10,3,16,0.00
2013-2-27,36,34,32,36,33,30,100,96,86,30.01,29.62,17,10,25,0.00
2013-2-28,37,35,32,36,34,32,100,98,86,29.66,29.51,10,4,0,0.00